PSLV R/B (46915 NORAD) Tracking and Keplerian Element Data

This shows tracking and keplerian element data for the satellite.

Feedback or suggestion? Click here.




ElementValue
Catalog46915
NamePSLV R/B
Epoch Orbit437
Epoch Day341.3183337
Epoch Year2020
RAAN286.1529
Inclination36.8504
Eccentricity0.0042194
Argument of Perigee315.112
Mean Anonmoly44.6214
Mean Motion15.07620942
Decay Rate1E-05
L11 46915U 20081L 20341.31833370 .00001000 00000-0 68566-4 0 9990
L22 46915 36.8504 286.1529 0042194 315.1120 44.6214 15.07620942 4370

Live tracking and technical data element details for PSLV R/B (NORAD 46915). PSLV R/B can be tracked NOW for your location showing map with azimuth and elevation plus other details from your city location.

Track the satellite on the map from your city or location and see movement details for azimuth, elevation, latitude, longitude, range, height, and movement on the map or in text.







IsCatalogInMostPopularTable: catalog: 46915, numindb: 31
Update: records affected: 1



GetName: 46915 PSLV R/B

Hit Count: updated at: Fri, 22 Jan 2021 19:03:55 GMT